Track EUTE HOT BIRD 13B (HB 8) now! EUTE HOT BIRD 13B (HB 8) is classified as:
1 29270U 06032A 25187.57072285 .00000172 00000-0 00000-0 0 9990 2 29270 0.7668 86.0881 0004438 15.2599 61.9993 1.00274642 43842